Regional Weather Roundup
Issued by NWS

Home | Current Version | Previous Version | Text Only | Print | Product List | Glossary On
Versions: 1 2 3 4 5 6 7 8 9 10 11 12 13 14 15 16 17 18 19 20 21 22 23 24 25 26 27 28 29 30 31 32 33 34 35 36 37 38 39 40 41 42 43 44 45 46 47 48 49 50
000
ASUS43 KLMK 292110
RWRKY
KENTUCKY REGIONAL WEATHER ROUNDUP
NATIONAL WEATHER SERVICE LOUISVILLE KY
500 PM EDT FRI MAY 29 2020

NOTE "FAIR" INDICATES FEW OR NO CLOUDS BELOW 12,000 FEET
WITH NO SIGNIFICANT WEATHER AND/OR OBSTRUCTIONS TO VISIBILITY.

KYZ001>023-026-027-061>063-070>075-292200-
WESTERN AND SOUTH CENTRAL KENTUCKY

CITY           SKY/WX    TMP DP  RH WIND       PRES   REMARKS
PADUCAH        SUNNY     79  58  48 N10G17    30.02F
HENDERSON      SUNNY     76  60  57 NW8       30.01S
OWENSBORO      MOSUNNY   74  65  73 NW12      30.00S
HOPKINSVILLE   MOSUNNY   76  63  63 W15G25    30.00R
BOWLING GREEN  MOSUNNY   80  63  55 W12       29.98S
GLASGOW        PTSUNNY   81  48  31 W9G17     29.98S
$$

KYZ024-025-028>034-038-045-046-053-292200-
NORTH CENTRAL KENTUCKY

CITY           SKY/WX    TMP DP  RH WIND       PRES   REMARKS
LOUISVILLE/SDF CLOUDY    72  67  84 W13       29.97R
LOUISVILLE/LOU CLOUDY    73  66  78 W8        29.97S
FORT KNOX      PTSUNNY   68  68 100 W9        29.99R
$$

KYZ035>037-039>044-047>052-055>060-089>105-292200-
NORTHEAST KENTUCKY

CITY           SKY/WX    TMP DP  RH WIND       PRES   REMARKS
LEXINGTON      MOSUNNY   78  64  61 SW9       29.95F
COVINGTON      PTSUNNY   72  63  73 NW14      29.96S
FRANKFORT      MOSUNNY   80  61  52 W12G18    29.94S
$$

KYZ054-064>069-076>088-106>120-292200-
SOUTHEAST KENTUCKY

CITY           SKY/WX    TMP DP  RH WIND       PRES   REMARKS
JACKSON        CLOUDY    75  64  68 VRB3      29.98R
LONDON         CLOUDY    79  62  56 SW7       29.98F
SOMERSET       CLOUDY    75  59  57 N12       29.99S
MIDDLESBORO    MOSUNNY   80  62  52 SW5       29.99F
MONTICELLO     MOCLDY    78  66  66 W16G24    30.00S
$$





USA.gov is the U.S. government's official web portal to all federal, state and local government web resources and services.